Tracking 30143 objects as of 20-Jan-2025
HD Live streaming from Space Station
objects crossing your sky now

ECHOSTAR 6

Track ECHOSTAR 6 now!
ECHOSTAR 6 is classified as:


NORAD ID: 26402
Int'l Code: 2000-038A
Perigee: 36,194.2 km
Apogee: 36,233.8 km
Inclination: 9.8 °
Period: 1,457.6 minutes
Semi major axis: 42584 km
RCS: 25.1188 m2 (large)
Launch date: July 14, 2000
Source: United States (US)
Launch site: AIR FORCE EASTERN TEST RANGE (AFETR)

CONUS, Hawaii, Alaska and Puerto Rico; 32 Ku-band transponders
Your satellite tracking list
Your tracking list is empty




NASA's NSSDC Master Catalog

Two Line Element Set (TLE):
1 26402U 00038A   25020.27925583 -.00000035  00000-0  00000-0 0  9994
2 26402   9.7676  51.0260 0004656 271.1677 104.6979  0.98791156 89444
Source of the keplerian elements: AFSPC